Regional Weather Roundup
Issued by NWS Upton, NY

Current Version | Previous Version | Text Only | Print | Product List | Glossary On
Versions: 1 2 3 4 5 6 7 8 9 10 11 12 13 14 15 16 17 18 19 20 21 22 23 24 25 26 27 28 29 30 31 32 33 34 35 36 37 38 39 40 41 42 43 44 45 46 47 48 49 50
000
ASUS41 KOKX 050218
RWROKX

REGIONAL WEATHER ROUNDUP
NATIONAL WEATHER SERVICE NEW YORK NY
1000 PM EDT SAT JUL 04 2015

NOTE: "FAIR" INDICATES FEW OR NO CLOUDS BELOW 12,000 FEET WITH NO
SIGNIFICANT WEATHER AND/OR OBSTRUCTIONS TO VISIBILITY.

NYZ071-072-176-178-NJZ106-104-050300-
NEW YORK CITY METRO AREA


CITY           SKY/WX    TMP DP  RH WIND       PRES   REMARKS
CENTRAL PARK   MOCLDY    71  53  52 CALM      30.03R
LAGUARDIA APRT MOCLDY    73  55  53 E3        29.99R
KENNEDY INTL   MOCLDY    71  63  75 SE7       30.01R
NEWARK/LIBERTY PTCLDY    73  56  54 NW6       29.99R
BRNX BOT. GARD   N/A     66  52  59 N1        30.01R
TETERBORO      PTCLDY    72  57  59 CALM      29.99R
$$

NYZ177-179-078>081-050300-
LONG ISLAND NEW YORK

CITY           SKY/WX    TMP DP  RH WIND       PRES   REMARKS
FARMINGDALE    MOCLDY    69  54  58 S6        30.00R
ISLIP          MOCLDY    69  52  54 SE6       29.98R
SHIRLEY        CLOUDY    64  55  72 CALM      30.00R
WESTHAMPTON    CLOUDY    61  57  87 CALM      30.01R
MONTAUK POINT    N/A     61  56  83 CALM      30.01R
$$

NYZ052-065-067-050300-
HUDSON VALLEY

CITY           SKY/WX    TMP DP  RH WIND       PRES   REMARKS
WHITE PLAINS   CLEAR     65  60  84 CALM      30.00R
NEWBURGH       CLEAR     63  61  94 CALM      30.02R
MONTGOMERY     CLEAR     61  59  93 CALM      30.01R
POUGHKEEPSIE   CLEAR     63  60  90 CALM      29.99R FOG
ALBANY         PTCLDY    63  60  90 CALM      30.00R
$$

NJZ001-105-106-008-010-013-015-019>022-104-050300-
NEW JERSEY

CITY           SKY/WX    TMP DP  RH WIND       PRES   REMARKS
NEWARK/LIBERTY PTCLDY    73  56  54 NW6       29.99R
TETERBORO      PTCLDY    72  57  59 CALM      29.99R
CALDWELL       CLEAR     68  58  70 CALM      30.01R
MORRISTOWN     PTCLDY    70  61  73 NW6       30.01R
SOMERVILLE     CLOUDY    68  60  75 NW3       29.99R
SUSSEX         CLEAR     62  59  90 CALM      30.02R
ANDOVER          N/A     61  60  97 CALM      30.02R
TRENTON        CLOUDY    69  56  62 S6        30.00R
MILLVILLE      CLOUDY    71  62  73 E6        30.01R
ATLANTIC CITY  CLOUDY    70  60  70 E5        30.01R
WRIGHTSTOWN    CLOUDY    70  58  66 S3        29.98R
TOMS RIVER     CLOUDY    70  61  73 CALM      30.01R
BELMAR         CLOUDY    70  54  56 SE3       30.00S
$$

PAZ047>061-062-071-050300-
EASTERN PENNSYLVANIA

CITY           SKY/WX    TMP DP  RH WIND       PRES   REMARKS
PHILADELPHIA   CLOUDY    71  58  63 E6        30.01R
ALLENTOWN      CLOUDY    68  64  87 CALM      30.02R
SCRANTON       CLOUDY    65  62  90 CALM      30.03R
$$

CTZ002-004>006-009-010-012-RIZ004-006-007-MAZ004-011-015-050300-
SOUTHERN NEW ENGLAND
 IN CT

CITY           SKY/WX    TMP DP  RH WIND       PRES   REMARKS
BRADLEY INTL   CLEAR     62  59  90 W3        29.99R
HARTFORD       CLEAR     63  59  87 MISG      29.99R
DANBURY        CLEAR     60  55  83 SW5       30.02R
WTRBRY/OXFORD  CLEAR     59  52  77 CALM      30.02R
BRIDGEPORT     PTCLDY    69  60  73 CALM      30.00R
MERIDEN        CLEAR     63  58  83 CALM      30.00R
NEW HAVEN      CLEAR     62  55  77 CALM      30.00R
CHESTER        FAIR      63  59  88 CALM      30.01R
GROTON         CLEAR     63  57  81 CALM      29.99R
WILLIMANTIC    CLEAR     63  60  90 CALM      30.00R

 IN RI

CITY           SKY/WX    TMP DP  RH WIND       PRES   REMARKS
PROVIDENCE     PTCLDY    66  59  78 N6        29.99R HAZE
BLOCK ISLAND   PTCLDY    63  52  67 SW3       29.99R
WESTERLY       CLEAR     63  57  81 CALM      30.00R

 IN MA

CITY           SKY/WX    TMP DP  RH WIND       PRES   REMARKS
BOSTON         PTCLDY    63  57  81 S3        29.99R
WORCESTER      CLEAR     61  56  83 W6        30.01R
WESTFIELD      PTCLDY    61  59  93 CALM      30.00R
PROVINCETOWN   CLEAR     59   3  10 N6        29.98R
NANTUCKET      CLEAR     61  57  87 N6        29.96R
$$

ANZ330-335-338-340-345-350-353-355-050300-
COASTAL MARINE OBSERVATIONS


STATION/POSITION TIME  SKY/WX   TEMP    WIND        PRES    VSBY  WAVE
                                AIR SEA DIR/SP/G                  HT/PER
                 (UTC)          (F)     (DEG/KT/KT) (MB)    (MI)  (FT/S)
NY HARB ENTRANCE 0150            69 69  130/  8/  8 1015.1          2/ 8
4S FIRE IS       0103               70                N/A           3/ 8
20S FIRE ISLAND  0150            69 69   90/  6/  8 1015.3          3/ 8
GREAT SOUTH BAY  0100            70 75  140/  8/ 10   N/A
23SW MTP         0150            67 68  350/  2/  4 1015.3          3/ 8
HUDSON CANYON    NOT AVBL
KINGS POINT      0100            70 67   CALM  /  2 1014.4
CENTRAL LI SOUND NOT AVBL
EASTERN LI SOUND 0100            65 64  240/  4/  4   N/A
ROBBINS REEF     0100            74     200/  4/  5 1014.0
$$


>>>>>>>>>>>>>>>>>>>>>>>>>>>> KEY <<<<<<<<<<<<<<<<<<<<<<<<<<<
>                                                          <
>     SKY/WX - SKY CONDITION/PRESENT WEATHER               <
>     TMP    - TEMPERATURE IN FAHRENHEIT                   <
>     DP     - DEWPOINT IN FAHRENHEIT                      <
>     RH     - RELATIVE HUMIDITY IN PERCENT                <
>     WIND   - DIRECTION AND SPEED IN MPH                  <
>     PRES   - MEAN SEA LEVEL PRESSURE IN INCHES OF HG     <
>     WCI    - WIND CHILL INDEX                            <
>     VSB    - VISIBILITY IN MILES                         <
>     HX     - HEAT INDEX                                  <
>     TC     - TEMPERATURE IN CELSIUS                      <
>     VRB    - VARIABLE WIND DIRECTION                     <
>                                                          <
>>>>>>>>>>>>>>>>>>>>>>>>>>>> KEY <<<<<<<<<<<<<<<<<<<<<<<<<<<




USA.gov is the U.S. government's official web portal to all federal, state and local government web resources and services.